Flag for U.S.A. Weather past 2 weeks in Key West, Florida, U.S.A.

Now
86 °F

Sunny.


Feels Like: 94 °F
Forecast: 83 / 89 °F
Wind: 8 mph from Southeast

Location: Key West International Airport

Current Time: Jul 24, 2014 at 10:08:03 AM

Latest Report: Jul 24, 2014 at 8:53 AM


Visibility: 10 mi

Pressure: 30.03 "Hg

Humidity: 67%

Dew point: 74 °F

Location of Key WestLocation

Historic Weather in Key West — Graph

°F

Key West temperature yesterday

Maximum temperature yesterday: 89 °F (at 12:53 PM)
Minimum temperature yesterday: 83 °F (at 12:53 AM)
Average temperature yesterday: 87 °F

Past Weeks' High & Low Weather Summary

 TemperatureHumidityPressure
High92 °F (Jul 18, 2:53 PM)88% (Jul 20, 1:53 AM)30.15 "Hg (Jul 20, 1:53 AM)
Low78 °F (Jul 19, 11:53 PM)55% (Jul 12, 3:53 PM)29.97 "Hg (Jul 16, 6:53 PM)
Average86 °F70%30.05 "Hg
* Reported Jul 9 8:53 AM — Jul 24 8:53 AM, Key West, Weather by CustomWeather, © 2014

Note: Actual official high and low records may vary slightly from our data, if they occured in-between our weather recording intervals... More about our weather records

Advertising

Key West weather history for previous 24 hours

 ConditionsComfort  
Time TempWeatherWind HumidityBarometerVisibility
8:53 AM
Jul 24
86 °FSunny.8 mph67%30.03 "Hg10 mi
7:53 AM85 °FPassing clouds.9 mph72%30.03 "Hg10 mi
6:53 AM85 °FClear.8 mph70%30.02 "Hg10 mi
5:53 AM85 °FPassing clouds.10 mph72%30.01 "Hg10 mi
4:53 AM85 °FPassing clouds.8 mph72%30.00 "Hg10 mi
3:53 AM85 °FClear.9 mph70%30.00 "Hg10 mi
2:53 AM85 °FPassing clouds.8 mph72%30.01 "Hg10 mi
1:53 AM85 °FPassing clouds.10 mph72%30.02 "Hg10 mi
12:53 AM86 °FPassing clouds.7 mph70%30.05 "Hg10 mi
11:53 PM
Jul 23
85 °FClear.8 mph72%30.04 "Hg10 mi
10:53 PM85 °FClear.3 mph68%30.05 "Hg10 mi
9:53 PM86 °FClear.7 mph65%30.04 "Hg10 mi
8:53 PM86 °FSunny.5 mph70%30.03 "Hg10 mi
7:53 PM86 °FSunny.3 mph67%30.02 "Hg10 mi
6:53 PM88 °FSunny.5 mph65%30.03 "Hg10 mi
5:53 PM89 °FPassing clouds.6 mph63%30.03 "Hg10 mi
4:53 PM87 °FThundershowers. Broken clouds.13 mph65%30.04 "Hg10 mi
3:53 PM89 °FSunny.10 mph70%30.04 "Hg10 mi
2:53 PM89 °FSunny.7 mph70%30.05 "Hg10 mi
1:53 PM89 °FPassing clouds.7 mph65%30.07 "Hg10 mi
12:53 PM89 °FSunny.7 mph68%30.08 "Hg10 mi
11:53 AM88 °FSunny.5 mph70%30.08 "Hg10 mi
10:53 AM87 °FSunny.5 mph72%30.08 "Hg10 mi
Weather by CustomWeather, © 2014

See weather overviewHow to use our weather pages